Regional Weather Roundup
Issued by NWS

Home | Current Version | Previous Version | Graphics & Text | Print | Product List | Glossary On
Versions: 1 2 3 4 5 6 7 8 9 10 11 12 13 14 15 16 17 18 19 20 21 22 23 24 25 26 27 28 29 30 31 32 33 34 35 36 37 38 39 40 41 42 43 44 45 46 47 48 49 50
000
ASUS43 KLOT 301002
RWRIL

ILLINOIS REGIONAL WEATHER ROUNDUP
NATIONAL WEATHER SERVICE CHICAGO/ROMEOVILLE IL
500 AM CDT SUN AUG 30 2015

NOTE: "FAIR" INDICATES FEW OR NO CLOUDS BELOW 12,000 FEET WITH NO
SIGNIFICANT WEATHER AND/OR OBSTRUCTIONS TO VISIBILITY.

* THESE STATIONS ARE NOT UNDER NWS QUALITY CONTROL. THEY ALSO MAY NOT
  REPORT WEATHER SUCH AS PRECIPITATION OR FOG.

ILZ001-002-007-009-015-016-024-301100-
NORTHWEST ILLINOIS

CITY           SKY/WX    TMP DP  RH WIND       PRES   REMARKS
MOLINE         FOG       61  59  93 CALM      30.04R VSB 1/4
STERLING*      CLOUDY   N/A N/A N/A CALM      30.02R
$$

ILZ003-004-008-010-011-017-018-301100-
NORTH CENTRAL ILLINOIS

CITY           SKY/WX    TMP DP  RH WIND       PRES   REMARKS
ROCKFORD       CLOUDY    66  62  87 NE3       30.06R FOG
$$

ILZ005-006-012>014-019>023-301100-
NORTHEAST ILLINOIS

CITY           SKY/WX    TMP DP  RH WIND       PRES   REMARKS
CHICAGO-OHARE  CLOUDY    65  63  93 N5        30.03R FOG
CHICAGO-MIDWAY CLOUDY    67  63  87 N6        30.03R FOG
AURORA         CLOUDY    64  63  96 NE6       30.04R FOG
WAUKEGAN       CLOUDY    63  63 100 NW3       30.03R FOG
DUPAGE AIRPORT CLOUDY    64  61  90 N3        30.03R FOG
WHEELING       CLOUDY    65  62  90 NE3       30.04S FOG
NORTHERLY ISL    N/A     63  61  93 MISG        N/A
$$

LMZ740>746-301100-
SOUTHERN LAKE MICHIGAN

STATION/POSITION SKY/WX   TEMP    WIND        PRES    VSBY  WAVE
                          AIR SEA DIR/SP/G                  HT/PER
                          (F)     (DEG/KT/KT) (MB)    (MI)  (FT/S)
SOUTHERN BUOY              67 68  360/ 10/ 12 1015.9R
WILMETTE HARBOR            60 58  140/  6/  6   N/A           1/ 3
HARRISON CRIB              62     330/ 10/ 12   N/A
BURNHAM HARBOR             63      CALM  /  3   N/A
BURNS HARBOR               67     310/  8/ 10 1016.9S
MICHIGAN CITY              67     280/  6/  6   N/A
MICHIGAN CITY 6N           68 71  340/  8/ 10   N/A           1/ 3
ST. JOSEPH                 68 70  360/  4/  6   N/A           1
$$

ILZ025>027-034>036-040-047-049-050-058-095>099-301100-
WEST-CENTRAL ILLINOIS

CITY           SKY/WX    TMP DP  RH WIND       PRES   REMARKS
QUINCY         FOG       66  66 100 NE6       30.01S VSB 1/4
$$

ILZ028>032-037-038-041>044-048-051>054-059>061-301100-
CENTRAL ILLINOIS

CITY           SKY/WX    TMP DP  RH WIND       PRES   REMARKS
BLOOMINGTON    FOG       68  68 100 CALM      30.03S VSB 1/2
DECATUR        CLOUDY    69  66  90 SW3       30.02S
PEORIA         PTCLDY    70  66  87 CALM      30.02S FOG
SPRINGFIELD    MOCLDY    67  65  93 CALM      30.01S
TAYLORVILLE    NOT AVBL
$$

ILZ033-039-045-046-055>057-062-063-301100-
EAST-CENTRAL ILLINOIS

CITY           SKY/WX    TMP DP  RH WIND       PRES   REMARKS
CHAMPAIGN      PTCLDY    64  62  93 CALM      30.03R FOG
MATTOON        CLEAR     66  62  87 S3        30.02S
$$

ILZ079-100>102-301100-
SOUTHWEST ILLINOIS

CITY           SKY/WX    TMP DP  RH WIND       PRES   REMARKS
BELLEVILLE     MOCLDY    67  67 100 CALM      30.00S
CAHOKIA*       CLEAR     68  64  87 CALM      30.01R
$$

ILZ064>066-069>071-074>076-080>082-084>086-088>090-092>094-301100-
SOUTH-CENTRAL ILLINOIS

CITY           SKY/WX    TMP DP  RH WIND       PRES   REMARKS
CARBONDALE     CLOUDY    69  67  93 SE3       30.03R
MT. VERNON     CLOUDY    68  61  77 CALM      30.04R
$$

ILZ067-068-072-073-078-083-087-091-301100-
SOUTHEAST ILLINOIS

CITY           SKY/WX    TMP DP  RH WIND       PRES   REMARKS
LAWRENCEVILLE  PTCLDY    68  67  96 E5        30.03S FOG
ROBINSON*      PTCLDY    64  63  97 CALM      30.04S FOG
$$

ABBREVIATIONS USED IN REMARKS
   TC - TEMPERATURE IN CELSIUS
  WCI - WIND CHILL INDEX
   HX - HEAT INDEX
  VSB - VISIBILITY
$$




USA.gov is the U.S. government's official web portal to all federal, state and local government web resources and services.